{"data":{"norad_id":69465,"intl_designator":"2026-127Y","name":"STARLINK-37535","alt_names":[],"object_type":"PAYLOAD","status":"ACTIVE","operator":null,"country":"US","launch_date":"2026-06-08","launch_site_code":"AFETR","launch_vehicle":null,"mission":null,"orbit_class":"UNKNOWN","rcs_meters":null,"size_class":null,"mass_kg":null,"dimensions":null,"purposes":["comms"],"wikipedia_slug":null,"has_3d_model":false,"image_url":null,"decayed_at":null,"tle_current":{"epoch":"2026-09-19T23:59:56.086080Z","epoch_age_seconds":68698,"freshness":"FRESH","line1":"1 69465U 26127Y   26262.99995470  .00006924  00000+0  21587-3 0  9994","line2":"2 69465  53.1582 168.1672 0001044  84.1225 275.9896 15.34400787 16112","mean_motion":15.34400787,"eccentricity":0.0001044,"inclination_deg":53.1582,"raan_deg":168.1672,"arg_perigee_deg":84.1225,"mean_anomaly_deg":275.9896,"bstar":0.00021587,"rev_number":1611,"period_min":93.847709946463,"perigee_km":461.98671760138,"apogee_km":463.41508455512,"semimajor_km":6840.8379010783,"source":"CELESTRAK","updated_at":"2026-09-20T09:00:44.203452Z"}}}